Location: Hertford
(51.8000°N, 0.0667°W)
Time: 03:48:20
(UTC+00:00)

Lacrosse 5 rocket - Pass Details

Date: 18 September 2020
Orbit: 461 x 635 km, 57.0° (Epoch: 18 October)

Event Time Altitude Azimuth Distance (km) Brightness Sun altitude
Rises 19:45:20 0° 266° (W) 2,761 6.1 -15.6°
Reaches altitude 10° 19:47:35 10° 272° (W) 1,894 5.2 -15.9°
Maximum altitude 19:51:47 48° 348° (NNW) 792 2.3 -16.5°
Enters shadow 19:55:19 15° 59° (ENE) 1,670 3.4 -17.0°
